Find Kosmos-2117

NORAD ID: 21031 Int'l Des: 1990-114 Owner: UNKS Country: SU operational
LEOCIRCULARPOLAR

Live Position

Loading 3D Globe...

About Kosmos-2117

Description loading...

Upcoming Passes

Passes for default location (London). Set your location on the main map for personalized predictions.

Altitude History

Loading altitude history...

Two-Line Element Set

1 21031U 90114D 26104.44425645 .00000008 00000-0 -16902-4 0 9990
2 21031 82.5744 238.2266 0007910 205.1651 216.6655 12.65030024630211
Epoch: Apr 14, 2026 • Age: 11 hours

Current Status

Altitude 1428.0 km
Velocity 7.15 km/s
Sub-Earth Point -82.50°S, 23.67°W
Launch Date Dec 22, 1990
Age 35.3 years
Type other

Technical Details

Classification Payload
Mass 225.00 kg
Dry Mass 225.00 kg
Total Mass 225.00 kg
Length 1.60 m
Diameter 0.80 m
Span 7.00 m
Shape Cyl + Ant
Manufacturer NPOPM
Bus Type Strela-3
Phase Status In Orbit
Owner/State UNKS/SU

Most Searched